STARLINK-2252 (48595 NORAD) Tracking and Keplerian Element Data

This shows tracking and keplerian element data for the satellite.

Feedback or suggestion? Click here.




ElementValue
Catalog48595
NameSTARLINK-2252
Epoch Orbit1312
Epoch Day214.7298548
Epoch Year2021
RAAN123.2419
Inclination53.0556
Eccentricity0.0001578
Argument of Perigee79.5171
Mean Anonmoly280.5996
Mean Motion15.06387043
Decay Rate-7.41E-06
L11 48595U 21041AU 21214.72985480 -.00000741 00000-0 -30888-4 0 9997
L22 48595 53.0556 123.2419 0001578 79.5171 280.5996 15.06387043 13123

Live tracking and technical data element details for STARLINK-2252 (NORAD 48595). STARLINK-2252 can be tracked NOW for your location showing map with azimuth and elevation plus other details from your city location.

Track the satellite on the map from your city or location and see movement details for azimuth, elevation, latitude, longitude, range, height, and movement on the map or in text.







IsCatalogInMostPopularTable: catalog: 48595, numindb: 24
Update: records affected: 1



GetName: 48595 STARLINK-2252

Hit Count: updated at: Wed, 04 Aug 2021 00:39:37 GMT